Location: Bottens
(46.6171°N, 6.6605°E)
Time: 14:29:20
(UTC+00:00)

ATLAS 5 CENTAUR R/B - Pass Details

Date: 30 October 2021
Orbit: 497 x 1159 km, 63.4° (Epoch: 25 November)

Event Time Altitude Azimuth Distance (km) Brightness Sun altitude
Rises 17:38:10 0° 287° (WNW) 2,738 6.2 -13.7°
Reaches altitude 10° 17:41:25 10° 316° (NW) 1,948 4.7 -14.3°
Maximum altitude 17:43:32 13° 345° (NNW) 1,823 4.1 -14.7°
Drops below altitude 10° 17:45:47 10° 14° (NNE) 2,116 4.1 -15.0°
Enters shadow 17:47:29 - 28° (NNE) 2,541 4.4 -15.3°
